Wind_Speed
41 39 38 35 33 31 28 27 25 24 23 22 22 20 18 17 16 14 14 13 13 13 14 13 12 11 11 10 10 10 10 10 8 7 7 5 6 5 4 4 4 5
42 41 40 38 36 34 31 29 27 26 25 24 23 21 19 18 18 18 17 16 14 13 14 15 14 13 13 12 12 11 11 10 8 8 8 7 7 6 5 5 5 6
42 41 41 40 38 36 34 32 30 28 27 25 24 22 19 18 19 19 19 19 17 15 14 15 15 15 14 14 13 13 12 11 10 9 9 8 7 7 7 6 5 7
43 42 41 40 39 38 36 34 32 31 29 27 26 25 22 19 19 20 21 20 20 18 17 16 16 16 16 16 15 14 13 13 12 11 10 9 9 8 8 7 8 7
44 43 41 40 39 38 36 35 34 32 31 29 27 27 25 23 21 21 22 22 22 21 20 19 18 17 17 17 17 16 15 15 13 12 12 12 10 10 9 9 9 9
45 44 42 41 40 38 36 36 35 34 33 32 29 28 27 25 24 24 24 24 23 22 22 22 21 20 19 19 18 17 16 16 15 14 13 13 12 11 10 10 10 10
45 44 44 42 41 39 37 36 36 35 34 33 31 29 28 26 27 27 27 26 25 24 23 24 24 23 21 21 20 18 18 18 17 15 15 14 13 13 12 10 10 12
45 44 44 43 42 40 39 38 36 36 35 33 32 30 29 28 28 29 30 28 27 25 24 25 26 25 23 23 22 20 19 19 18 17 17 16 14 14 13 13 13 14
45 44 44 44 43 42 41 40 38 37 36 34 33 31 30 30 29 30 32 31 29 27 26 26 26 25 24 24 23 22 21 20 19 19 19 18 16 14 14 14 15 16
44 44 44 44 44 43 42 41 38 37 37 36 34 32 30 31 30 30 31 31 30 29 27 27 27 26 25 24 24 24 23 22 21 21 20 20 18 16 15 15 16 16
46 45 44 44 44 43 42 39 37 36 36 37 36 33 31 31 32 32 32 31 31 30 29 28 29 28 27 26 25 25 25 24 23 23 22 21 20 18 17 16 17 18
47 46 45 45 44 43 40 38 36 35 34 35 36 34 32 31 32 33 33 32 32 31 31 30 30 30 29 28 26 26 26 26 25 24 23 23 22 20 19 18 18 18
47 47 45 45 44 42 39 37 36 35 34 34 35 34 34 32 32 33 33 33 32 32 32 32 31 31 31 29 28 28 27 27 26 25 24 23 23 22 21 20 19 19
46 46 45 44 43 41 40 38 37 36 34 34 34 34 34 33 32 32 33 33 33 33 33 33 32 32 32 31 30 29 29 28 27 26 25 24 23 23 22 21 20 20
44 44 43 43 42 41 41 39 38 37 36 34 34 34 34 34 32 32 32 33 33 33 33 33 33 33 33 32 32 31 30 29 29 28 26 25 24 23 22 22 21 20
43 43 43 43 42 42 42 42 39 38 37 36 36 35 34 34 33 32 32 33 33 33 33 33 33 33 33 32 32 33 32 31 31 30 29 27 26 25 24 22 21 21
44 44 43 43 44 43 43 43 41 39 39 38 37 36 35 34 34 34 33 33 33 33 34 34 34 34 33 32 31 32 32 31 31 31 30 29 28 27 26 25 23 22
44 44 44 44 44 44 43 44 43 41 40 39 38 38 37 35 35 35 35 33 32 32 33 33 34 33 33 32 31 31 31 31 31 31 31 31 30 29 28 27 26 25
45 45 45 45 45 45 44 44 44 43 41 41 40 39 38 37 37 37 37 35 33 32 32 32 32 32 32 32 31 30 30 30 30 31 31 31 31 30 29 29 28 28
45 45 46 46 45 45 45 44 45 45 43 42 41 39 39 38 38 37 38 38 36 33 32 32 31 31 31 32 31 30 28 28 29 30 30 30 30 30 29 28 28 28
45 46 46 46 45 45 46 45 45 46 45 42 40 39 39 39 38 38 37 39 39 36 33 32 31 30 31 31 31 30 28 28 28 28 29 30 30 28 28 27 27 28
45 46 46 46 46 46 46 46 46 46 46 44 40 38 37 38 38 38 37 37 39 38 35 33 31 30 30 31 31 30 29 28 28 28 29 31 31 30 28 27 28 28
45 46 46 46 46 47 47 47 47 46 46 45 42 37 35 36 37 37 36 35 37 38 38 35 33 31 31 30 30 31 30 29 29 28 29 31 33 33 32 31 30 30
45 45 46 46 46 47 47 47 47 47 46 45 44 39 35 34 36 36 35 34 35 37 38 38 36 34 33 32 31 31 31 31 30 30 30 31 32 34 35 34 34 33
44 44 46 46 46 47 47 46 46 46 46 45 45 42 36 33 34 34 34 33 33 34 36 37 37 36 35 35 34 34 33 33 32 31 31 31 32 33 34 35 35 34
44 44 45 46 46 46 45 45 44 44 44 44 45 43 39 35 33 32 32 31 31 32 34 35 35 36 36 36 36 36 35 34 34 34 33 32 32 32 33 34 35 34
Wind_Direction
214 215 216 216 216 215 215 218 223 225 224 226 229 232 231 230 233 234 237 241 234 222 223 229 229 228 228 228 229 224 221 223 220 226 232 221 222 224 213 225 237 243
216 217 218 218 219 219 218 219 223 228 229 227 228 231 235 234 230 231 235 241 245 234 224 229 231 228 229 231 230 231 232 230 224 227 233 230 228 227 227 231 240 254
216 217 219 219 220 221 221 221 224 228 229 229 226 224 229 234 232 231 233 237 244 242 234 232 232 230 229 232 234 234 236 235 228 229 235 232 231 233 231 232 237 258
216 218 219 220 221 222 222 222 223 225 226 228 228 223 221 225 231 233 232 234 238 240 240 238 234 233 231 232 236 236 237 239 234 231 235 233 232 236 237 234 228 233
217 218 219 220 220 221 222 221 221 224 224 226 229 229 223 219 225 234 233 232 235 235 237 239 236 235 235 234 236 237 236 238 238 234 236 238 237 237 238 239 237 230
218 218 218 219 219 219 220 221 221 222 225 225 226 229 228 220 218 228 233 231 233 233 232 236 237 234 235 235 235 236 236 237 238 238 237 239 240 240 238 241 249 248
218 218 217 218 218 218 218 220 221 221 224 226 226 226 228 223 217 221 229 231 231 232 231 234 238 236 234 235 236 235 235 235 234 237 241 239 235 236 237 237 246 256
219 218 217 217 217 217 217 219 220 220 221 224 225 225 224 224 219 218 224 228 228 229 228 229 236 239 235 235 236 235 234 235 233 233 240 243 239 235 235 233 237 247
217 218 217 216 217 218 218 219 220 220 221 222 222 222 221 221 220 217 221 226 226 227 226 226 231 237 237 235 237 237 235 235 235 235 238 243 245 241 237 238 239 244
215 216 218 218 218 220 220 220 219 220 221 221 220 218 217 219 219 217 221 225 224 224 224 224 227 233 237 236 236 238 238 236 236 237 239 243 247 246 242 241 244 245
215 215 217 219 219 219 219 216 213 215 219 220 219 217 216 217 217 216 219 222 222 221 222 223 225 229 235 237 237 239 241 240 237 237 239 242 246 249 248 246 247 248
214 215 216 219 219 218 216 211 207 208 213 217 218 217 214 215 217 217 218 221 221 220 220 222 224 226 232 237 238 239 240 242 242 239 240 242 244 248 251 251 251 252
212 214 215 217 218 215 211 208 205 205 209 214 216 215 211 211 215 218 220 221 222 221 220 221 224 226 229 234 237 238 239 241 242 242 242 242 245 248 251 252 253 254
210 213 212 212 214 212 208 207 207 206 207 212 214 213 210 208 211 217 221 221 222 223 221 220 223 225 228 232 235 236 237 238 239 241 241 242 246 248 249 252 254 254
206 208 209 209 210 209 207 207 207 207 207 210 213 213 210 207 208 214 220 221 221 223 223 222 223 226 228 231 235 235 234 234 236 238 239 239 243 246 248 251 253 250
203 204 206 207 207 208 208 206 206 207 206 208 213 214 212 208 206 210 218 222 220 220 223 222 222 227 232 235 237 238 236 234 235 238 240 240 240 241 243 247 250 249
202 203 204 205 206 208 208 206 205 206 207 208 211 215 215 211 208 208 214 220 221 221 225 226 226 229 236 239 239 240 240 238 237 237 240 242 241 239 239 242 246 248
202 202 203 204 206 208 209 207 205 205 207 208 209 213 216 214 211 208 210 215 220 221 224 228 230 231 235 239 240 240 240 241 240 239 238 240 242 242 241 242 246 248
203 202 203 205 206 207 208 207 205 205 207 208 209 211 214 215 214 211 210 212 217 220 221 225 230 233 233 236 240 242 242 241 241 241 240 240 242 245 244 245 248 252
204 203 204 205 206 206 207 207 206 205 206 208 209 210 213 215 215 214 213 212 214 219 223 224 227 231 233 234 238 243 246 244 243 243 243 242 242 244 247 247 249 252
204 204 204 205 205 205 206 207 207 207 206 207 209 209 212 215 216 216 216 215 214 216 222 225 226 228 232 234 237 243 246 246 245 244 244 243 241 241 244 247 250 252
206 205 205 205 205 205 206 208 209 208 207 207 207 208 210 215 216 216 217 218 217 216 218 223 224 225 229 233 238 244 246 246 245 244 243 242 240 238 238 241 246 251
208 206 206 205 205 205 207 208 209 208 207 206 206 206 207 211 215 216 216 218 219 219 219 221 223 225 227 230 236 242 243 243 244 244 243 242 241 239 238 238 241 246
209 207 206 206 205 206 207 208 209 209 208 207 206 205 204 206 212 215 217 219 221 222 223 223 224 226 227 227 231 236 239 242 244 244 243 243 242 241 240 241 243 247
209 208 207 207 207 207 207 207 208 208 208 207 208 207 205 206 210 214 216 218 220 223 227 228 227 227 228 229 230 232 235 239 242 243 244 245 245 244 244 244 247 250
208 208 208 208 208 207 207 207 207 208 208 207 208 209 208 207 210 213 214 216 218 220 226 232 232 229 229 232 234 235 236 238 241 244 246 248 249 248 248 248 250 252
Height
1547 1549 1552 1554 1557 1559 1561 1563 1565 1567 1569 1571 1572 1574 1576 1577 1579 1580 1581 1582 1583 1585 1586 1587 1588 1589 1590 1590 1591 1592 1593 1593 1594 1595 1595 1596 1596 1596 1597 1598 1599 1599
1544 1547 1549 1552 1554 1557 1559 1561 1563 1565 1567 1569 1570 1572 1574 1576 1577 1578 1580 1581 1582 1583 1584 1585 1586 1588 1588 1589 1590 1591 1592 1592 1593 1594 1594 1595 1595 1596 1596 1597 1598 1599
1541 1544 1546 1549 1551 1554 1556 1559 1561 1563 1565 1567 1569 1571 1572 1574 1575 1576 1578 1579 1580 1582 1583 1584 1585 1586 1587 1588 1589 1590 1590 1591 1592 1593 1594 1594 1595 1595 1596 1596 1597 1598
1538 1540 1543 1546 1548 1551 1554 1556 1558 1560 1562 1564 1566 1569 1571 1572 1573 1574 1576 1577 1578 1580 1581 1582 1583 1584 1586 1587 1587 1588 1589 1590 1591 1592 1593 1593 1594 1594 1595 1596 1596 1597
1534 1537 1540 1543 1546 1548 1551 1553 1556 1558 1560 1562 1564 1566 1568 1570 1571 1572 1573 1575 1576 1578 1579 1581 1582 1583 1584 1585 1586 1587 1588 1589 1590 1591 1591 1592 1593 1593 1594 1595 1595 1596
1531 1534 1537 1540 1542 1546 1548 1550 1553 1555 1557 1559 1561 1563 1565 1568 1570 1570 1571 1572 1574 1575 1577 1578 1580 1581 1582 1583 1584 1585 1586 1587 1588 1589 1590 1591 1592 1592 1593 1593 1594 1594
1527 1530 1533 1536 1539 1542 1545 1547 1550 1552 1554 1556 1559 1561 1563 1565 1567 1568 1569 1570 1572 1573 1575 1576 1577 1579 1581 1582 1583 1584 1585 1586 1587 1587 1588 1589 1590 1591 1591 1592 1593 1593
1523 1526 1530 1533 1536 1539 1541 1544 1546 1549 1551 1554 1556 1558 1560 1562 1564 1566 1567 1568 1569 1571 1572 1574 1575 1576 1578 1579 1581 1582 1583 1584 1585 1586 1586 1587 1588 1589 1590 1591 1591 1592
1520 1523 1526 1529 1532 1535 1538 1540 1543 1545 1548 1551 1553 1555 1557 1559 1561 1563 1564 1565 1567 1569 1570 1572 1573 1574 1576 1577 1578 1580 1581 1582 1583 1584 1585 1585 1586 1587 1588 1589 1590 1590
1517 1520 1523 1526 1528 1531 1533 1536 1539 1542 1545 1547 1550 1552 1554 1556 1558 1560 1561 1563 1564 1566 1568 1569 1570 1572 1573 1575 1576 1578 1579 1580 1581 1582 1583 1584 1584 1585 1586 1587 1588 1589
1512 1515 1519 1521 1524 1527 1530 1533 1536 1538 1541 1543 1546 1549 1551 1553 1555 1556 1558 1560 1561 1563 1565 1566 1568 1569 1571 1572 1574 1575 1576 1578 1579 1580 1581 1582 1583 1584 1585 1585 1586 1587
1508 1511 1514 1517 1520 1524 1527 1530 1533 1535 1537 1539 1542 1545 1548 1550 1551 1553 1555 1556 1558 1560 1562 1564 1565 1567 1568 1570 1571 1573 1574 1575 1576 1578 1579 1580 1581 1582 1583 1584 1584 1585
1503 1506 1510 1513 1516 1520 1524 1527 1530 1532 1534 1536 1538 1541 1544 1547 1548 1550 1551 1553 1555 1557 1559 1561 1562 1564 1565 1567 1568 1570 1571 1572 1574 1575 1577 1578 1579 1580 1581 1582 1582 1583
1499 1502 1506 1509 1513 1517 1520 1524 1527 1530 1532 1534 1536 1538 1541 1543 1545 1547 1548 1551 1552 1554 1556 1558 1559 1561 1562 1564 1565 1567 1569 1570 1571 1573 1574 1575 1576 1578 1579 1579 1580 1581
1495 1499 1502 1506 1510 1513 1517 1520 1523 1526 1529 1531 1533 1535 1537 1540 1542 1544 1545 1547 1550 1551 1553 1555 1556 1558 1559 1560 1562 1564 1566 1567 1569 1570 1571 1573 1574 1575 1576 1577 1578 1579
1492 1495 1499 1502 1506 1509 1512 1516 1520 1523 1526 1528 1530 1532 1534 1537 1540 1541 1542 1544 1546 1548 1549 1551 1553 1554 1555 1557 1559 1561 1563 1565 1566 1567 1569 1570 1571 1573 1574 1575 1575 1576
1489 1492 1495 1498 1502 1505 1508 1512 1516 1519 1522 1525 1527 1529 1531 1534 1536 1539 1540 1541 1543 1544 1546 1548 1549 1551 1552 1554 1556 1558 1561 1563 1564 1565 1566 1567 1569 1570 1571 1572 1573 1574
1486 1489 1492 1495 1498 1501 1504 1508 1512 1516 1518 1521 1524 1526 1528 1530 1533 1535 1537 1538 1540 1541 1543 1544 1546 1547 1549 1551 1553 1555 1558 1560 1562 1563 1564 1565 1566 1567 1568 1569 1570 1571
1484 1486 1488 1491 1494 1497 1500 1504 1508 1512 1514 1517 1520 1523 1525 1527 1529 1532 1534 1536 1537 1538 1540 1541 1543 1544 1546 1548 1550 1552 1555 1557 1559 1560 1561 1562 1563 1564 1565 1566 1567 1568
1481 1483 1485 1487 1490 1494 1497 1500 1504 1507 1510 1514 1517 1520 1522 1523 1526 1528 1531 1533 1535 1536 1537 1539 1540 1542 1543 1545 1547 1549 1551 1554 1556 1557 1558 1559 1560 1561 1562 1563 1564 1565
1478 1480 1483 1485 1488 1491 1494 1496 1499 1503 1506 1510 1513 1516 1519 1520 1523 1525 1527 1529 1532 1534 1535 1536 1538 1539 1541 1543 1544 1546 1548 1550 1552 1554 1555 1556 1557 1558 1559 1560 1561 1562
1475 1478 1480 1482 1485 1488 1490 1493 1496 1499 1502 1506 1509 1513 1516 1518 1520 1522 1524 1526 1528 1531 1533 1534 1535 1537 1538 1540 1542 1543 1545 1547 1549 1551 1552 1553 1554 1555 1556 1557 1558 1559
1472 1475 1477 1479 1482 1484 1486 1489 1492 1495 1499 1502 1506 1509 1512 1514 1517 1519 1521 1523 1525 1527 1529 1531 1533 1534 1535 1537 1539 1540 1542 1544 1545 1547 1548 1549 1550 1551 1552 1554 1555 1555
1469 1471 1474 1476 1478 1480 1482 1485 1489 1492 1495 1499 1502 1505 1508 1511 1513 1515 1518 1520 1522 1523 1525 1527 1529 1530 1532 1534 1536 1537 1539 1540 1542 1543 1544 1545 1546 1547 1549 1550 1551 1552
1465 1468 1471 1473 1475 1477 1480 1483 1486 1489 1493 1496 1499 1502 1505 1508 1509 1512 1514 1516 1518 1520 1521 1523 1525 1527 1528 1530 1532 1534 1535 1537 1538 1539 1540 1541 1542 1543 1544 1546 1547 1548
1462 1465 1467 1469 1472 1474 1478 1481 1484 1487 1490 1493 1496 1499 1502 1505 1507 1509 1511 1513 1515 1517 1518 1519 1521 1523 1525 1526 1528 1530 1532 1533 1534 1535 1536 1538 1539 1540 1541 1542 1543 1544